AirNav   Air Wisconsin Up To $57,000 Bonus
 
 1273 users online  

8NC8 Lake Ridge Aero Park Airport
Durham, North Carolina, USA

GOING TO DURHAM?


FAA INFORMATION EFFECTIVE 25 MARCH 2021

Location

FAA Identifier: 8NC8
Lat/Long: 36-03-36.5220N 078-47-00.0190W
36-03.608700N 078-47.000317W
36.0601450,-78.7833386
(estimated)
Elevation: 309 ft. / 94.2 m (surveyed)
Variation: 07W (1985)
From city: 7 miles NE of DURHAM, NC
Time zone: UTC -4 (UTC -5 during Standard Time)
Zip code: 27704

Airport Operations

Airport use: Private use. Permission required prior to landing
Activation date: 09/1948
Control tower: no
ARTCC: WASHINGTON CENTER
FSS: RALEIGH FLIGHT SERVICE STATION
Attendance: UNATNDD
Pattern altitude: 1409 ft. MSL
Wind indicator: yes
Segmented circle: no
Lights: SS-SR

Airport Communications

WX ASOS at RDU (11 nm S): PHONE 919-840-0816
WX AWOS-3 at TDF (17 nm NW): 126.725 (336-364-1651)

Nearby radio navigation aids

VOR radial/distance  VOR name  Freq  Var
RDUr009/11.3RALEIGH/DURHAM VORTAC117.2009W
SBVr168/38.5SOUTH BOSTON VORTAC110.4005W

 
NDB name  Hdg/Dist  Freq  Var  ID
LEEVY346/8.535007WLE .-.. .
HUNTSBORO218/16.527109WHXO .... -..- ---
PERSON135/17.222008WHUR .... ..- .-.
HARNETT000/38.041708WHQT .... --.- -

Airport Services

Fuel available: 100LL
Parking: hangars
Airframe service: NONE
Powerplant service: NONE
Bottled oxygen: NONE
Bulk oxygen: NONE

Runway Information

Runway 14/32

Dimensions: 3200 x 150 ft. / 975 x 46 m
Surface: turf
CENTER 30' FAIR.
Runway edge lights: low intensity
RWY LGTS NON STANDARD.
RUNWAY 14  RUNWAY 32
Traffic pattern: leftleft
Runway end identifier lights: nono
Obstructions: 50 ft. trees, 300 ft. from runway, 75 ft. left of centerline
POLE & FENCE 299' AND SIGN 100' FM THR.
75 ft. trees, 300 ft. from runway, 75 ft. both sides of centerline

Airport Ownership and Management from official FAA records

Ownership: Privately-owned
Owner: BRNJ INC
100 CITATION CIRCLE
DURHAM, NC 27704
Phone 919-688-6358
Manager: RANDY SMITH
100 CITATION CIRCLE
DURHAM, NC 27704
Phone 919-688-6358
CELL # 919-630-2072

Airport Operational Statistics

Aircraft based on the field: 51
Single engine airplanes: 50
Ultralights: 1
    
Aircraft operations: avg 25/week *
77% local general aviation
23% transient general aviation
* for 12-month period ending 18 May 1981

Additional Remarks

RY SOFT WHEN WET.
FOR CD CTC WASHINGTON ARTCC AT 703-771-3587.

Instrument Procedures

There are no published instrument procedures at 8NC8.

Some nearby airports with instrument procedures:

KRDU - Raleigh-Durham International Airport (11 nm S)
KTDF - Raleigh Regional Airport at Person County (17 nm NW)
KHNZ - Henderson-Oxford Airport (22 nm NE)
KLHZ - Triangle NorthExecutive Airport (22 nm E)
KTTA - Raleigh Executive Jetport at Sanford-Lee County Airport (33 nm SW)
 
Loc | Ops | Rwys | IFR | FBO | Links
Com | Nav | Svcs | Stats | Notes
Area around 8NC8 (Lake Ridge Aero Park Airport)
 
Road maps at: MapQuest Bing Google
 
Aerial photo
WARNING: Photo may not be current or correct
Aerial photo of 8NC8 (Lake Ridge Aero Park Airport)
Photo taken 20-Jul-2008
on final for runway 32

Do you have a better or more recent aerial photo of Lake Ridge Aero Park Airport that you would like to share? If so, please send us your photo.

 
Sectional chart

 
Airport distance calculator
Flying to Lake Ridge Aero Park Airport? Find the distance to fly.

From to 8NC8

Sunrise and sunset
Times for 19-Apr-2021
 Local
(UTC-4)
 Zulu
(UTC)
Morning civil twilight06:1110:11
Sunrise06:3810:38
Sunset19:5123:51
Evening civil twilight20:1800:18

Current date and time
Zulu (UTC)  19-Apr-2021 13:39:05
Local (UTC-4)  19-Apr-2021 09:39:05
 
METAR
KRDU 
12nm S 
191251Z 01007KT 330V040 10SM FEW015 BKN032 BKN100 12/08 A2988 RMK AO2 SLP115 T01220078
KTDF 
17nm NW 
191315Z AUTO 36006KT 10SM SCT024 BKN048 OVC060 11/07 A2991 RMK AO2
KHNZ 
22nm NE 
191315Z AUTO 35013G17KT 10SM SCT019 BKN044 BKN050 11/07 A2988 RMK AO2 T01060071
KLHZ 
22nm E 
191315Z AUTO 34009G14KT 10SM OVC024 11/09 A2989 RMK AO2
TAF
KRDU 
12nm S 
191120Z 1912/2012 VRB05KT P6SM VCSH FEW025 BKN070 TEMPO 1915/1919 -SHRA BKN025 FM192000 32007KT P6SM SCT100 FM200100 VRB03KT P6SM FEW250
NOTAMs
Click for the latest NOTAMs
NOTAMs are issued by the DoD/FAA and will open in a separate window not controlled by AirNav.

 

 
 

FBO, Fuel Providers, and Aircraft Ground Support

  
 Business Name 
 
 Contact 
 
 Services / Description 
 
Fuel Prices
 
Comments
  
Lake Ridge Aero Park 919-688-2928
no information available

If you are affiliated with Lake Ridge Aero Park and would like to show here your services, contact info, web link, logo, and more, click here
100LL
AS $4.25 
 Updated 17-Jan-2021
 
   write
AS=Assisted/Self Service
Update Fuel Prices
 

Would you like to see your business listed on this page?

 If your business provides an interesting product or service to pilots, flight crews, aircraft, or users of the Lake Ridge Aero Park Airport, you should consider listing it here.  To start the listing process, click on the button below
 
Add a business
 

Other Pages about Lake Ridge Aero Park Airport

Update a link
 
Copyright © AirNav, LLC. All rights reserved. Privacy Policy  Contact